User: anonymous   Login
Location: Grange Verzio
(44.5000°N, 6.9833°E)
Time: 22:57:10
(UTC+00:00)
Language:

deb Kosmos-375 - Orbit

View from above orbital plane
View from above orbital plane
View from above satellite
View from above satellite

Ground track
Ground track

The orbit data is extracted from the following two-line orbital elements,

1 18866U 70091AV  24052.27372039  .00005735  00000-0  18451-2 0  9993
2 18866  62.6737 352.9772 0776471 355.4489   3.9734 13.36909733601431
Epoch (UTC): 21 February 2024 06:34:09
Eccentricity: 0.0776471
inclination: 62.6737°
perigee height: 538 km
apogee height: 1703 km
right ascension of ascending node: 352.9772°
argument of perigee: 355.4489°
revolutions per day: 13.36909733
mean anomaly at epoch: 3.9734°
orbit number at epoch: 60143

The dashed part of the orbit path shows where the satellite is in the earth's shadow,  

DLR